Погода Березово

Погода Березово : погода сейчас, прогноз погоды и архив. Всё, что Вы хотите узнать о погоде Березово!

Поиск расширенной информации на нашем сайте:

Другие новости

Новости СМИ2

Главная страница сайта

Новости сайта

02.10.2013

Напоминаем, что на нашем новом сайте вы можете получить высокодетализированные прогнозы погоды по пунктам России, СНГ и мира (включающие важные для авиации метеовеличины, такие как направление и скорость ветра, видимость, явления погоды, количество и форма облачности, нижняя и верхняя граница облачности), а также ознакомиться с разнообразными материалами по авиационной метеорологии и подборкой полезных ссылок на эту тему.

Сайт Метеоцентр.Азия посвящён разработке технологий оптимизации авиаметеорологического обслуживания, включая проектирование и перспективное создание нескольких автоматизированных авиаметеорологических систем:
- система выпуска высокодетальных прогностических карт явлений погоды для нижнего воздушного пространства по России и ближнему зарубежью;
- система верификации прогнозов TAF (выпускаемых синоптиками официальных АМСГ РФ и ближнего зарубежья) и AUTOTAF (выпускаемых сайтом Метеоцентр.Азия) - выявление ошибок, онлайн-сопоставление с фактической погодой METAR, автоматическое внесение коррективов в прогнозы при резком отклонении фактической погоды от прогноза, подсчёт оправдываемости прогнозов по элементам и в целом;
- система обработки, анализа и отображения авиаметеорологической информации для применения провайдерами метеорологической информации.

Рекомендуем: Лимузины в Одессе www.viplimoservice.com.ua/prokat-limuzinov-v-odesse.

Погода Березово - сегодня

Время (UTC), дата Ветер
(°,м/с) 
Видим.   Явления Облачность Т
(°С)
Тd
(°С)
f(%) Тe
(°С)
Pmin
(гПа)
dP
(гПа)
Po
(мм)
O2
(г/м3)
Тmin Tmax R s Состояние
почвы
15 22.05.17 010 (С) 20000 м    6/6 1000 м 
[Sc]
+0.7 -4.6 68 -2  1001.7  0.3  748  301    +4.1       
18 22.05.17 340 (С) 20000 м    10/10 480 м 
[Sc]
-1.4 -4.7 78 -4  1002.8  1.1  749  304           
21 22.05.17 300 (СЗ) 10 км  слаб. ливневой снег  10/10 480 м кучево-дожд. 
[Cb cap]
-2.4 -3.6 91 -5  1003.4    749  305      200     
00 23.05.17 340 (С) 20000 м  {ливн. осадки}  10/5 450 м кучево-дожд., верхняя 
[Cb cap|Ci fib]
-3.3 -5.7 83 -7  1005.3  1.8  751  307           
03 23.05.17 350 (С) 20000 м    10/8 500 м верхняя 
[Sc|Ci fib]
-3.1 -6.2 79 -6  1007.9  2.6  753  307  -4.2    0.4  сухой снег
50-90% 
06 23.05.17 020 (С) 20000 м    3/3 1080 м 
[Sc]
+1.3 -7 54 +1  1008.6  0.8  753  303           
09 23.05.17 030 (СВ) 20000 м    3/3 1200 м 
[Sc]
+3.9 -6.1 48 +3  1008.9  0.4  754  300           
12 23.05.17 080 (В) 20000 м    1/1 1000 м 
[Sc]
+5.9 -5 45 +6  1008.4  -0.5  753  298           
15 23.05.17 090 (В) 20000 м    ясно 
+5.3 -4.3 50 +4  1007.7  -0.7  753  298    +6.3       
18 23.05.17 090 (В) 20000 м    ясно 
+1.9 -4.2 64 +1  1007.8  753  302           
21 23.05.17 тихо ()   20000 м    ясно 
-3 -4 93 -3  1007.2  -0.7  752  307           
00 24.05.17 тихо ()   20000 м    1/0 средняя 
[Ac trans]
-2 -2.6 96 -2  1006.2  -0.9  752  305           
03 24.05.17 160 (Ю) 20000 м    1/0 верхняя 
[Ci fib]
+5.4 -4.2 50 +5  1005.1  -1  751  297  -3.2      мокрый или
старый снег
10-40% 
06 24.05.17 150 (ЮВ) 20000 м    10/0 средняя, верхняя 
[Ac trans|Ci fib]
+8.4 -4.1 41 +8  1003.8  -1.2  750  294           
09 24.05.17 150 (ЮВ) 20000 м    10/0 средняя, верхняя 
[Ac trans|Ci fib]
+1 -3.8 70 -1  1002.4  -1.4  749  301           
12 24.05.17 150 (ЮВ) 20000 м    10/3 1320 м кучево-дожд., верхняя 
[Cb cap|Cs]
+10.6 -4.1 35 +10  1001.4  -1  748  291           
15 24.05.17 220 (ЮЗ) 10 км  слаб. ливневой дождь  10/10 750 м кучево-дожд. 
[Cb cap]
+9.5 -3.6 39 +9  1001.2  -0.2  748  292    +11.2  0.0     
18 24.05.17 010 (С) 10 км  слаб. ливневой дождь  10/10 750 м кучево-дожд. 
[Cb cap]
+5.9 +1.7 74 +6  1000.8  -0.5  748  295           
21 24.05.17 340 (С) 10 км  слаб. ливневой дождь  10/10 500 м кучево-дожд. 
[Cb cap]
+3.5 +2 90 +2  1000  -0.8  747  297           
00 25.05.17 350 (С) 7{10}  2000 м  ливневой дождь со снегом  10/10 180 м кучево-дожд. 
[Cb cap]
+0.2 -0.7 94 -4  1001.4  1.3  748  301           
03 25.05.17 330 (СЗ) 5{11}  1000 м  ливневой снег  ?/?  
-0.4 -1.6 92 -3  1004.2  2.8  750  303  -0.7    равномерный
сухой снег
100% 
06 25.05.17 300 (СЗ) 20000 м  в посл. час ливневой снег  10/4 600 м средняя, верхняя 
[Sc|Ac trans|Ci fib]
+1.7 -1.4 80 1006.6  2.4  752  301           
09 25.05.17 330 (СЗ) 20000 м    9/5 800 м средняя 
[Sc|Ac trans]
+6.1 -4.7 46 +4  1009  2.5  754  298           
12 25.05.17 290 (З) 20000 м    9/9 600 м кучево-дожд. 
[Cb cap]
+6.2 -6.6 39 +4  1011.3  2.2  755  298           
15 25.05.17 330 (СЗ) 20000 м    8/3 1200 м кучево-дожд., средняя 
[Cb cap|Ac trans]
+5.3 -6 44 +4  1012.8  1.5  757  300    +7.1  0.7     
Время (UTC), дата Ветер
(°,м/с) 
Видим.   Явления Облачность Т
(°С)
Тd
(°С)
f(%) Тe
(°С)
Pmin
(гПа)
dP
(гПа)
Po
(мм)
O2
(г/м3)
Тmin Tmax R s Состояние
почвы

Для получения пояснительной информации подведите курсор к названию столбца.

ПОГОДА Березово - архив

Всё, что Вы хотите узнать о погоде Березово - удобно и подробно!

Выберите нужную дату (начиная с 1 января 2015* года) и нажмите кнопку "Найти".
Будут отображены архивные сводки погоды по пункту Березово, начиная с указанной даты.


Отображать данные в формате CSV (для использования в таблицах Excel)


Внимание! Наш архив погоды предназначен исключительно для личного некоммерческого использования в познавательных целях. Если Вам необходимы официальные справки о состоянии погоды (для производственных, юридических, коммерческих и т.п. целей), обращайтесь в органы Росгидромета.

*Примечание: данная дата относится к архиву по метеостанциям СССР (Россия, СНГ, Балтия).
Архив по метеостанциям Зарубежной Европы и Азии (кроме Китая) хранится 10 дней, по другим регионам земного шара (Китай, Африка, Америка, Австралия, Океания) - 1 день.

Березово - район местоположения метеостанции


Название, широта, долгота, высота метеостанции:
Березово 63.9°ш. 65.1°д. 32 м над ур. моря [Российская Федерация]

Дополнительная информация

В oтличие oт бoльшинства пoгoдных сайтoв мы публикуем пoдрoбную метеoинфoрмацию в детальнoм прoфессиoнальнoм фoрмате.

Характеристики температуры и влажнoсти вoздуха измеряются на высoте 2 м в тени вдали oт зданий и деревьев.
Скoрoсть ветра измеряется на высoте 10 м (на урoвне рoста челoвека скoрoсть ветра ниже в 1.5-2 раза). Если метеoстанция нахoдится в гoрoде или в лесу, тo скoрoсть ветра занижена на 2-4 м/с пo сравнению с oткрытым местoм. Скoрoсть ветра над акватoриями крупных рек и oзёр, а также на вершинах хoлмoв на 2-5 м/с выше, чем в oбычных услoвиях.
Атмoсфернoе давление в разных тoчках местнoсти мoжет значительнo oтличаться oт давления на метеoстанции, в зависимoсти oт услoвий рельефа (при пoдъёме на 10 м давление пoнижается примернo на 1 мм рт.ст.).